Theta_e
335 336 336 337 338 337 338 340 341 341 335 339 342 344 346 350 348 349 350 348 347 346 345 343 341 342 344 344 347 347 345 344 346 348 350 351 350 351 351 351 352 352 350 348
332 331 334 335 334 334 336 339 340 342 335 334 340 342 342 348 348 347 349 349 348 346 346 344 342 343 343 345 347 347 347 346 350 350 352 351 351 351 352 352 353 353 354 352
329 330 330 330 331 332 334 336 338 339 337 335 338 341 343 343 346 346 348 348 348 348 347 345 343 343 344 347 347 349 350 351 352 352 352 354 353 355 354 353 354 352 353 353
328 329 328 328 328 330 330 333 334 336 338 337 337 344 344 346 347 347 346 348 348 348 347 346 344 343 343 345 348 349 352 353 354 353 353 353 354 353 353 351 352 352 350 351
328 328 328 328 329 329 329 330 331 333 338 338 337 339 342 341 339 340 344 346 347 348 348 346 345 343 342 344 346 349 352 353 353 353 350 353 354 353 351 354 352 350 351 344
328 328 328 328 329 330 330 330 330 333 335 336 336 338 337 338 336 336 336 339 345 348 349 347 345 344 343 344 346 348 351 352 351 354 345 350 353 353 352 352 354 353 353 351
329 328 329 328 330 333 331 331 331 332 333 333 334 335 334 334 334 338 338 337 341 347 348 348 345 345 344 344 345 347 350 352 350 347 346 343 345 354 351 356 353 353 351 354
330 329 329 331 331 332 331 331 331 332 332 332 333 334 334 333 337 339 340 342 344 346 348 349 346 345 345 345 345 346 348 351 354 345 344 343 344 354 356 355 353 351 351 351
331 332 331 330 331 331 332 333 332 330 330 330 330 331 332 335 337 342 344 347 347 347 348 349 347 346 345 346 347 346 349 349 349 349 342 342 342 345 355 353 352 354 351 351
334 332 333 333 332 331 331 332 329 331 331 332 330 331 331 338 337 342 348 351 351 349 349 349 348 347 346 346 347 348 349 350 349 355 354 350 344 342 345 354 355 354 353 351
332 332 333 333 334 332 331 329 332 332 330 330 330 336 337 340 344 344 349 351 353 351 350 349 349 349 348 347 347 348 350 353 356 357 356 356 356 354 344 356 355 356 355 355
334 332 331 332 332 330 329 328 329 331 332 333 334 335 340 340 343 347 351 352 353 352 352 351 350 349 350 349 349 350 350 353 355 356 357 356 357 357 357 356 357 358 356 356
334 333 331 332 332 331 331 331 331 330 331 331 332 334 336 340 345 348 349 351 353 337 337 343 349 351 350 351 351 351 352 353 355 355 355 355 356 357 356 357 356 357 356 355
329 329 330 332 333 333 333 331 330 330 330 331 332 335 337 336 339 345 346 350 353 352 341 339 350 351 352 352 353 354 354 354 355 355 355 355 356 356 356 356 357 358 357 353
330 330 330 331 332 331 330 330 329 329 330 330 331 332 333 333 335 343 345 348 352 355 357 353 353 354 354 356 357 357 355 355 356 356 356 356 357 357 357 357 357 358 357 358
330 331 330 330 330 329 329 328 327 327 327 328 328 329 331 330 337 342 346 345 347 349 355 360 358 355 356 354 354 358 357 355 354 354 355 359 360 359 359 358 357 357 357 357
329 330 331 332 332 331 331 329 328 327 327 327 327 328 329 331 333 338 345 347 348 348 348 352 353 352 349 345 344 341 340 340 338 334 338 342 353 358 360 360 361 360 358 360
329 330 331 332 332 333 332 329 327 327 327 328 328 328 328 333 337 339 342 348 348 348 346 345 345 343 344 346 344 346 340 338 337 336 334 333 333 351 361 361 361 362 360 360
329 329 330 331 332 332 330 330 328 332 332 333 329 332 334 336 338 339 344 349 350 348 348 345 343 344 340 343 347 350 348 332 333 338 344 352 351 354 359 362 363 362 361 360
327 327 330 331 332 332 333 331 331 330 331 337 337 336 335 337 339 344 345 343 342 343 344 343 344 347 345 342 344 347 347 348 347 346 338 326 330 343 344 343 345 354 363 362
332 330 330 331 331 331 332 330 329 331 336 334 334 337 338 340 340 342 343 342 344 345 344 345 347 347 346 344 343 345 348 349 348 347 346 343 338 328 343 332 327 329 338 350
334 335 335 332 333 333 331 330 331 333 331 330 330 329 329 331 333 335 336 337 340 342 346 349 350 350 349 345 345 345 346 346 340 345 340 337 332 329 341 335 323 322 321 336
333 332 333 334 335 333 331 330 329 328 328 329 328 328 328 327 327 328 329 331 332 333 339 344 344 346 350 346 344 341 341 344 333 336 342 343 345 346 346 346 335 337 336 333
332 330 332 331 330 330 330 329 329 328 328 327 327 326 326 327 327 327 327 327 328 328 329 330 335 338 338 340 340 338 338 334 330 334 336 337 339 339 339 340 340 340 339 340
331 331 332 332 331 329 330 330 329 329 328 327 327 326 326 326 326 326 326 327 327 327 327 327 328 328 330 333 336 333 333 333 331 330 329 328 326 326 329 335 337 338 337 337
330 332 332 332 330 331 330 329 328 328 327 326 326 326 326 326 326 326 326 326 326 326 326 326 326 327 328 329 333 333 333 333 332 330 326 326 326 325 325 325 327 332 335 334
Wind_Speed
18 12 15 19 11 11 11 12 12 8 4 5 6 6 9 17 16 20 24 26 27 27 26 27 27 26 25 24 23 23 23 23 22 20 18 15 16 14 14 11 10 11 7 4
13 13 16 18 9 12 15 16 14 13 6 10 6 7 9 17 14 16 18 23 24 24 25 27 29 29 27 26 25 23 23 24 23 20 17 17 15 17 16 12 10 11 9 5
12 17 8 9 13 15 15 15 18 10 11 18 8 12 8 9 12 12 16 19 23 25 25 27 30 31 29 28 27 26 26 25 24 21 17 15 14 17 8 8 9 13 11 8
9 10 7 12 13 11 15 14 14 8 13 6 1 2 9 12 11 8 13 18 22 25 25 26 30 31 31 29 27 27 27 26 24 24 18 19 15 14 14 12 10 13 12 12
2 3 7 10 6 9 14 13 11 14 13 16 10 5 13 15 6 9 13 16 20 26 26 27 28 30 30 29 29 28 28 28 26 25 24 20 20 15 13 12 10 13 14 14
14 1 6 11 8 9 11 10 12 14 13 13 14 10 7 13 3 4 2 5 18 25 28 26 25 27 29 29 30 30 29 30 28 26 26 26 21 18 17 14 14 10 12 14
9 10 10 4 16 8 10 14 10 10 11 11 14 7 6 13 7 9 6 6 10 23 29 29 27 29 29 30 31 30 31 32 30 29 27 26 27 21 18 13 14 13 12 14
6 11 9 5 5 13 14 13 10 10 9 11 9 5 7 5 13 10 8 7 10 21 31 31 29 29 29 30 30 31 32 33 29 30 29 26 25 22 19 18 17 12 14 15
2 4 5 2 6 7 11 11 14 11 13 13 8 11 4 14 12 11 9 8 4 17 28 30 29 28 28 29 31 32 31 32 32 28 27 26 24 23 21 21 19 15 14 13
4 11 8 8 6 17 9 12 12 8 10 8 9 7 2 11 8 12 11 10 7 8 20 25 27 27 27 27 29 30 31 32 30 26 25 25 25 23 24 22 24 21 16 18
12 12 7 10 7 12 8 11 10 12 9 10 11 8 11 9 10 10 12 11 6 1 10 16 23 25 25 25 26 27 28 27 25 25 24 23 22 22 24 22 23 24 21 20
10 10 13 14 4 2 9 12 10 9 12 10 9 4 10 8 10 10 12 11 7 8 4 5 14 21 24 25 24 25 25 24 23 21 22 22 21 21 22 24 22 22 23 24
13 8 12 10 13 12 5 2 7 12 11 11 10 2 5 8 9 9 10 10 10 6 6 8 16 14 19 21 20 22 22 21 20 19 19 20 20 22 23 23 24 23 24 25
8 14 16 12 16 12 8 14 11 13 9 13 11 2 11 7 5 4 7 8 9 7 7 7 11 5 10 13 18 18 18 18 16 16 16 17 20 20 21 22 23 25 27 27
8 14 15 15 12 13 15 16 15 15 15 15 18 17 10 10 7 6 4 3 7 8 8 11 9 12 12 12 13 14 15 13 9 9 9 10 13 18 20 22 24 25 28 29
11 13 12 16 15 17 20 19 19 18 18 18 17 17 15 16 6 3 4 2 4 9 10 10 11 11 16 15 12 19 23 21 20 5 6 4 9 18 20 24 29 29 31 30
13 13 12 16 14 16 12 18 16 13 14 15 16 15 9 7 7 9 9 5 3 5 8 12 12 12 13 12 9 17 21 15 19 35 36 17 9 20 22 22 25 26 29 29
13 13 11 12 13 16 14 9 6 9 10 10 11 10 9 5 10 5 10 12 8 6 5 5 8 10 11 11 11 13 13 16 11 14 14 21 14 30 17 16 22 26 26 28
11 9 10 11 12 13 16 7 4 7 9 13 4 3 2 6 6 9 8 7 9 10 9 9 10 9 9 9 9 10 11 16 15 12 9 12 11 4 7 10 13 17 21 24
10 9 9 10 10 10 9 9 7 6 9 13 13 12 9 6 8 5 6 3 5 9 11 11 10 9 8 9 10 11 11 11 10 10 9 6 3 3 3 3 6 9 13 18
9 7 12 11 11 11 8 4 3 9 4 9 12 12 13 11 15 11 12 3 4 6 10 11 10 12 11 10 9 9 10 9 10 9 8 8 7 5 5 7 11 14 11 15
9 10 10 9 11 15 9 5 5 8 9 10 9 11 12 12 15 14 11 10 11 10 11 11 14 15 15 13 13 13 12 11 10 8 8 8 9 8 8 11 12 15 17 14
9 10 9 8 5 3 3 6 6 8 12 13 13 16 18 19 18 16 16 14 13 14 13 14 15 16 16 13 15 14 15 16 13 11 10 10 10 10 11 12 15 13 16 15
12 10 7 11 11 10 12 12 14 14 12 15 17 20 21 21 21 22 23 22 20 18 16 14 14 15 15 15 16 13 15 16 13 11 10 10 10 12 14 17 15 16 15 17
8 4 7 12 14 18 19 11 8 15 17 20 19 19 19 20 22 24 25 24 24 23 22 21 19 17 16 16 16 14 15 13 11 10 9 9 12 15 17 19 20 20 19 20
12 12 10 11 13 12 14 17 18 20 19 17 16 19 21 22 24 23 24 25 27 27 26 22 21 22 20 18 17 16 15 13 11 10 11 13 13 17 20 22 25 25 23 20
Wind_Direction
216 260 255 254 359 349 312 296 302 320 49 302 252 264 183 173 200 195 198 199 199 204 201 203 202 200 199 199 199 200 197 196 195 197 200 206 219 219 225 219 230 242 240 251
255 249 260 284 344 293 287 285 275 259 18 295 295 273 263 151 192 203 202 193 201 199 199 201 201 201 201 200 199 198 197 198 196 200 204 214 218 228 213 223 224 232 233 223
257 288 6 314 282 279 265 264 288 355 314 270 287 237 121 122 163 185 201 202 199 198 199 198 200 202 201 200 200 200 199 202 202 196 208 216 229 248 228 213 234 228 223 227
266 288 320 279 269 271 272 288 288 303 281 293 171 80 50 267 140 170 184 207 200 198 200 196 200 201 202 203 203 202 203 203 207 203 208 215 221 234 245 233 227 242 225 221
266 289 245 248 296 344 297 327 292 281 275 270 220 211 147 219 106 144 178 193 216 196 199 195 200 202 203 201 202 201 201 205 204 216 205 220 222 233 254 220 242 240 226 225
273 241 267 290 316 263 291 276 253 242 254 265 268 248 207 130 96 38 90 210 205 207 198 200 197 200 201 201 200 200 202 207 209 213 220 210 220 226 230 227 212 233 226 226
190 220 215 233 271 209 231 248 250 217 216 235 245 171 285 81 55 25 354 296 228 205 192 197 193 197 199 200 201 202 203 210 213 214 224 224 227 224 220 221 231 230 210 224
300 176 199 146 330 339 309 327 309 321 297 322 11 226 100 70 59 11 0 312 282 192 190 194 195 197 197 199 200 203 204 215 211 218 224 230 230 223 225 227 223 222 224 219
315 187 120 258 329 313 331 274 349 311 296 282 284 298 232 84 48 29 20 353 303 184 189 191 195 197 197 200 201 202 204 219 220 219 224 228 232 224 218 216 230 219 226 222
13 288 162 144 239 250 254 329 293 262 251 258 279 250 263 74 54 35 21 19 11 191 197 189 198 199 200 202 203 204 205 218 223 213 218 220 224 228 216 217 214 216 221 219
311 292 278 208 279 351 310 287 252 254 301 307 286 68 54 73 53 39 30 38 61 12 200 205 204 206 205 205 205 206 209 209 211 211 214 214 215 217 221 213 220 217 214 222
341 315 295 293 20 335 281 288 299 276 278 254 267 69 70 40 65 44 53 52 85 91 31 353 232 213 208 211 210 209 211 212 215 214 212 218 214 213 216 215 216 219 217 221
334 302 309 291 178 154 243 285 315 302 282 283 302 102 93 84 70 50 52 56 77 81 164 91 318 231 205 204 210 211 209 213 214 215 216 215 220 216 215 220 214 219 227 225
298 274 277 299 321 335 305 298 302 297 280 295 282 12 157 105 61 44 53 66 73 107 97 100 260 215 192 204 201 200 203 206 208 207 213 220 221 223 222 222 226 217 228 234
266 279 288 293 299 293 290 283 278 275 281 288 299 309 326 354 34 25 354 72 101 104 135 170 182 174 170 170 172 180 180 170 166 176 203 227 237 233 230 224 227 230 222 234
260 271 276 277 278 279 272 270 273 267 269 266 270 276 287 301 129 240 247 218 144 130 131 138 141 151 146 150 155 160 152 142 129 168 178 184 269 253 236 236 225 228 235 232
284 289 291 281 296 291 284 261 263 264 266 268 267 267 277 290 302 226 208 227 187 152 140 143 143 145 145 159 130 185 209 228 211 229 244 251 297 266 253 242 241 237 235 234
271 265 273 276 282 270 274 28 334 315 304 297 307 285 283 311 290 272 217 189 198 192 159 141 131 136 136 135 137 122 130 158 170 193 229 238 231 268 262 254 243 244 240 240
253 266 270 264 255 269 274 263 208 331 320 335 285 283 276 261 275 272 218 208 219 212 206 185 168 143 138 142 133 122 125 137 145 146 160 185 198 246 267 266 271 259 248 242
256 243 261 250 269 281 52 58 6 332 265 15 348 335 335 346 284 82 67 183 216 201 200 192 182 181 177 169 163 155 155 155 157 163 158 169 190 225 260 316 311 289 264 269
217 249 248 244 252 265 57 3 327 261 39 1 1 351 346 327 334 26 340 343 296 250 217 213 214 213 204 207 203 192 184 181 178 179 189 201 214 250 289 316 322 321 304 274
245 237 251 229 268 271 43 285 297 7 332 341 340 338 331 320 316 318 320 314 311 295 256 235 234 232 220 214 210 210 217 211 213 215 223 237 260 276 274 295 313 315 314 297
242 267 293 311 2 68 306 330 343 325 310 305 309 308 307 304 301 302 300 293 283 281 275 257 253 248 237 206 216 218 214 213 226 231 240 241 250 262 262 276 297 300 299 298
231 204 243 295 278 294 320 313 304 302 308 309 302 301 303 296 294 294 292 289 288 283 279 275 265 251 246 235 219 227 218 225 220 222 232 247 262 272 275 276 280 283 290 294
281 115 245 263 267 272 267 276 305 309 301 301 301 299 296 297 294 291 288 287 284 280 276 269 263 259 256 244 230 228 218 217 216 223 233 248 267 271 273 271 276 273 280 278
264 250 243 262 293 315 301 299 298 295 296 295 298 302 299 295 293 293 290 285 281 279 277 272 261 256 254 247 234 227 220 219 220 231 260 265 269 273 271 273 277 273 268 269